owner,sensor,date,latitude,longitude,vertical_datum,direction_of_sea_water_velocity,sea_water_speed,upward_sea_water_velocity,qcFlag 
TABS,ioos:station:wmo:42047:1,2015-12-01T00:00:00Z,27.8966,-93.5973,2.0,344.8273306,7.947030892,-99999.0,'11133222,11111222,99999999' 
TABS,ioos:station:wmo:42047:1,2015-12-01T00:30:00Z,27.8966,-93.5973,2.0,316.2621303,6.422086888,-99999.0,'11133222,11111222,99999999' 
TABS,ioos:station:wmo:42047:1,2015-12-01T01:00:00Z,27.8966,-93.5973,2.0,319.2629168,2.283199509,-99999.0,'11133222,11111222,99999999' 
TABS,ioos:station:wmo:42047:1,2015-12-01T01:30:00Z,27.8966,-93.5973,2.0,344.9731362,3.085514544,-99999.0,'11133222,11111222,99999999' 
TABS,ioos:station:wmo:42047:1,2015-12-01T02:00:00Z,27.8966,-93.5973,2.0,302.4439648,3.187506863,-99999.0,'11133222,11111222,99999999' 
TABS,ioos:station:wmo:42047:1,2015-12-01T02:30:00Z,27.8966,-93.5973,2.0,291.501805,2.837463656,-99999.0,'11133222,11111222,99999999' 
TABS,ioos:station:wmo:42047:1,2015-12-01T03:00:00Z,27.8966,-93.5973,2.0,289.3783797,3.074150289,-99999.0,'11133222,11111222,99999999' 
TABS,ioos:station:wmo:42047:1,2015-12-01T03:30:00Z,27.8966,-93.5973,2.0,301.6867145,0.951892851,-99999.0,'11133222,11111222,99999999' 
TABS,ioos:station:wmo:42047:1,2015-12-01T04:00:00Z,27.8966,-93.5973,2.0,196.345958,3.730804203,-99999.0,'11133222,11111222,99999999' 
TABS,ioos:station:wmo:42047:1,2015-12-01T04:30:00Z,27.8966,-93.5973,2.0,187.5235924,2.673013281,-99999.0,'11133222,11111222,99999999' 
TABS,ioos:station:wmo:42047:1,2015-12-01T05:00:00Z,27.8966,-93.5973,2.0,331.4962656,1.718284028,-99999.0,'11133222,11111222,99999999' 
TABS,ioos:station:wmo:42047:1,2015-12-01T05:30:00Z,27.8966,-93.5973,2.0,308.7096596,1.8069311,-99999.0,'11133222,11111222,99999999' 
TABS,ioos:station:wmo:42047:1,2015-12-01T06:00:00Z,27.8966,-93.5973,2.0,313.6456036,4.187242529,-99999.0,'11133222,11111222,99999999' 
TABS,ioos:station:wmo:42047:1,2015-12-01T06:30:00Z,27.8966,-93.5973,2.0,328.6209714,3.783358297,-99999.0,'11133222,11111222,99999999' 
TABS,ioos:station:wmo:42047:1,2015-12-01T07:00:00Z,27.8966,-93.5973,2.0,55.06914438,8.45283976,-99999.0,'11133222,11111222,99999999' 
TABS,ioos:station:wmo:42047:1,2015-12-01T07:30:00Z,27.8966,-93.5973,2.0,72.56516608,2.536533067,-99999.0,'11133222,11111222,99999999' 
TABS,ioos:station:wmo:42047:1,2015-12-01T08:00:00Z,27.8966,-93.5973,2.0,353.4283032,2.184353451,-99999.0,'11133222,11111222,99999999' 
TABS,ioos:station:wmo:42047:1,2015-12-01T08:30:00Z,27.8966,-93.5973,2.0,32.45822468,3.353937984,-99999.0,'11133222,11111222,99999999' 
TABS,ioos:station:wmo:42047:1,2015-12-01T09:00:00Z,27.8966,-93.5973,2.0,40.14948193,6.188133806,-99999.0,'11133222,11111222,99999999' 
TABS,ioos:station:wmo:42047:1,2015-12-01T09:30:00Z,27.8966,-93.5973,2.0,44.31498816,9.461765163,-99999.0,'11133222,11111222,99999999' 
TABS,ioos:station:wmo:42047:1,2015-12-01T10:00:00Z,27.8966,-93.5973,2.0,61.59157514,7.924253908,-99999.0,'11133222,11111222,99999999' 
TABS,ioos:station:wmo:42047:1,2015-12-01T10:30:00Z,27.8966,-93.5973,2.0,58.82755492,5.177576653,-99999.0,'11133222,11111222,99999999' 
TABS,ioos:station:wmo:42047:1,2015-12-01T11:00:00Z,27.8966,-93.5973,2.0,111.2364548,8.47554718,-99999.0,'11133222,11111222,99999999' 
TABS,ioos:station:wmo:42047:1,2015-12-01T11:30:00Z,27.8966,-93.5973,2.0,73.26699706,6.49502117,-99999.0,'11133222,11111222,99999999' 
TABS,ioos:station:wmo:42047:1,2015-12-01T12:00:00Z,27.8966,-93.5973,2.0,81.86991666,2.757716447,-99999.0,'11133222,11111222,99999999' 
TABS,ioos:station:wmo:42047:1,2015-12-01T12:30:00Z,27.8966,-93.5973,2.0,108.7759472,5.312720584,-99999.0,'11133222,11111222,99999999' 
TABS,ioos:station:wmo:42047:1,2015-12-01T13:00:00Z,27.8966,-93.5973,2.0,96.20531855,6.568485366,-99999.0,'11133222,11111222,99999999' 
TABS,ioos:station:wmo:42047:1,2015-12-01T13:30:00Z,27.8966,-93.5973,2.0,102.2562037,5.69991228,-99999.0,'11133222,11111222,99999999' 
TABS,ioos:station:wmo:42047:1,2015-12-01T14:00:00Z,27.8966,-93.5973,2.0,124.7354783,8.968221674,-99999.0,'11133222,11111222,99999999' 
TABS,ioos:station:wmo:42047:1,2015-12-01T14:30:00Z,27.8966,-93.5973,2.0,123.0290483,4.568260063,-99999.0,'11133222,11111222,99999999' 
TABS,ioos:station:wmo:42047:1,2015-12-01T15:00:00Z,27.8966,-93.5973,2.0,163.1611339,5.90310088,-99999.0,'11133222,11111222,99999999' 
TABS,ioos:station:wmo:42047:1,2015-12-01T15:30:00Z,27.8966,-93.5973,2.0,153.4068922,9.181296205,-99999.0,'11133222,11111222,99999999' 
TABS,ioos:station:wmo:42047:1,2015-12-01T16:00:00Z,27.8966,-93.5973,2.0,175.0757083,3.262039239,-99999.0,'11133222,11111222,99999999' 
TABS,ioos:station:wmo:42047:1,2015-12-01T16:30:00Z,27.8966,-93.5973,2.0,64.1101809,2.656633208,-99999.0,'11133222,11111222,99999999' 
TABS,ioos:station:wmo:42047:1,2015-12-01T17:00:00Z,27.8966,-93.5973,2.0,161.6972061,5.477079514,-99999.0,'11133222,11111222,99999999' 
TABS,ioos:station:wmo:42047:1,2015-12-01T17:30:00Z,27.8966,-93.5973,2.0,323.981613,4.846534845,-99999.0,'11133222,11111222,99999999' 
TABS,ioos:station:wmo:42047:1,2015-12-01T18:00:00Z,27.8966,-93.5973,2.0,149.4499397,6.885847805,-99999.0,'11133222,11111222,99999999' 
TABS,ioos:station:wmo:42047:1,2015-12-01T18:30:00Z,27.8966,-93.5973,2.0,142.6263853,10.92242189,-99999.0,'11111222,11111222,99999999' 
TABS,ioos:station:wmo:42047:1,2015-12-01T19:00:00Z,27.8966,-93.5973,2.0,115.1974483,8.432378075,-99999.0,'11133222,11111222,99999999' 
TABS,ioos:station:wmo:42047:1,2015-12-01T19:30:00Z,27.8966,-93.5973,2.0,148.4829233,4.973690783,-99999.0,'11133222,11111222,99999999' 
TABS,ioos:station:wmo:42047:1,2015-12-01T20:00:00Z,27.8966,-93.5973,2.0,165.7239498,5.799077513,-99999.0,'11133222,11111222,99999999' 
TABS,ioos:station:wmo:42047:1,2015-12-01T20:30:00Z,27.8966,-93.5973,2.0,82.09285579,3.634556369,-99999.0,'11133222,11111222,99999999' 
TABS,ioos:station:wmo:42047:1,2015-12-01T21:00:00Z,27.8966,-93.5973,2.0,149.8972159,5.36336648,-99999.0,'11133222,11111222,99999999' 
TABS,ioos:station:wmo:42047:1,2015-12-01T21:30:00Z,27.8966,-93.5973,2.0,122.3862968,6.217025012,-99999.0,'11133222,11111222,99999999' 
TABS,ioos:station:wmo:42047:1,2015-12-01T22:00:00Z,27.8966,-93.5973,2.0,144.4462573,4.179102775,-99999.0,'11133222,11111222,99999999' 
TABS,ioos:station:wmo:42047:1,2015-12-01T22:30:00Z,27.8966,-93.5973,2.0,180.083555,6.84000731,-99999.0,'11133222,11111222,99999999' 
TABS,ioos:station:wmo:42047:1,2015-12-01T23:00:00Z,27.8966,-93.5973,2.0,167.7556945,5.894073294,-99999.0,'11133222,11111222,99999999' 
TABS,ioos:station:wmo:42047:1,2015-12-01T23:30:00Z,27.8966,-93.5973,2.0,196.9858925,3.251861006,-99999.0,'11133222,11111222,99999999' 
TABS,ioos:station:wmo:42047:1,2015-12-02T00:00:00Z,27.8966,-93.5973,2.0,206.2825363,4.53927307,-99999.0,'11133222,11111222,99999999' 
TABS,ioos:station:wmo:42047:1,2015-12-02T00:30:00Z,27.8966,-93.5973,2.0,141.9431615,6.083305023,-99999.0,'11133222,11111222,99999999' 
TABS,ioos:station:wmo:42047:1,2015-12-02T01:00:00Z,27.8966,-93.5973,2.0,193.3205126,7.769021817,-99999.0,'11133222,11111222,99999999' 
TABS,ioos:station:wmo:42047:1,2015-12-02T01:30:00Z,27.8966,-93.5973,2.0,198.1592375,3.946568129,-99999.0,'11133222,11111222,99999999' 
TABS,ioos:station:wmo:42047:1,2015-12-02T02:00:00Z,27.8966,-93.5973,2.0,236.6534976,2.310367936,-99999.0,'11133222,11111222,99999999' 
TABS,ioos:station:wmo:42047:1,2015-12-02T02:30:00Z,27.8966,-93.5973,2.0,238.7957637,4.09199218,-99999.0,'11133222,11111222,99999999' 
TABS,ioos:station:wmo:42047:1,2015-12-02T03:00:00Z,27.8966,-93.5973,2.0,183.0548047,3.565066619,-99999.0,'11133222,11111222,99999999' 
TABS,ioos:station:wmo:42047:1,2015-12-02T03:30:00Z,27.8966,-93.5973,2.0,220.2647926,3.512164575,-99999.0,'11133222,11111222,99999999' 
TABS,ioos:station:wmo:42047:1,2015-12-02T04:00:00Z,27.8966,-93.5973,2.0,174.4665402,3.21498056,-99999.0,'11133222,11111222,99999999' 
TABS,ioos:station:wmo:42047:1,2015-12-02T04:30:00Z,27.8966,-93.5973,2.0,209.0630745,6.360951187,-99999.0,'11133222,11111222,99999999' 
TABS,ioos:station:wmo:42047:1,2015-12-02T05:00:00Z,27.8966,-93.5973,2.0,233.1297677,1.65,-99999.0,'11133222,11111222,99999999' 
TABS,ioos:station:wmo:42047:1,2015-12-02T05:30:00Z,27.8966,-93.5973,2.0,145.2718453,5.511850869,-99999.0,'11133222,11111222,99999999' 
TABS,ioos:station:wmo:42047:1,2015-12-02T06:00:00Z,27.8966,-93.5973,2.0,120.3986566,5.21724065,-99999.0,'11133222,11111222,99999999' 
TABS,ioos:station:wmo:42047:1,2015-12-02T06:30:00Z,27.8966,-93.5973,2.0,73.28919181,4.729746293,-99999.0,'11133222,11111222,99999999' 
TABS,ioos:station:wmo:42047:1,2015-12-02T07:00:00Z,27.8966,-93.5973,2.0,107.06477,5.554547686,-99999.0,'11133222,11111222,99999999' 
TABS,ioos:station:wmo:42047:1,2015-12-02T07:30:00Z,27.8966,-93.5973,2.0,138.3559811,4.589923747,-99999.0,'11133222,11111222,99999999' 
TABS,ioos:station:wmo:42047:1,2015-12-02T08:00:00Z,27.8966,-93.5973,2.0,110.5559972,5.639042472,-99999.0,'11133222,11111222,99999999' 
TABS,ioos:station:wmo:42047:1,2015-12-02T08:30:00Z,27.8966,-93.5973,2.0,88.25549424,3.941826988,-99999.0,'11133222,11111222,99999999' 
TABS,ioos:station:wmo:42047:1,2015-12-02T09:00:00Z,27.8966,-93.5973,2.0,102.8438528,7.692470344,-99999.0,'11133222,11111222,99999999' 
TABS,ioos:station:wmo:42047:1,2015-12-02T09:30:00Z,27.8966,-93.5973,2.0,155.6418568,4.412799565,-99999.0,'11133222,11111222,99999999' 
TABS,ioos:station:wmo:42047:1,2015-12-02T10:00:00Z,27.8966,-93.5973,2.0,165.0284955,16.64501126,-99999.0,'11111222,11111222,99999999' 
TABS,ioos:station:wmo:42047:1,2015-12-02T10:30:00Z,27.8966,-93.5973,2.0,144.2681525,7.551489919,-99999.0,'11133222,11111222,99999999' 
TABS,ioos:station:wmo:42047:1,2015-12-02T11:00:00Z,27.8966,-93.5973,2.0,164.5168096,9.702092558,-99999.0,'11133222,11111222,99999999' 
TABS,ioos:station:wmo:42047:1,2015-12-02T11:30:00Z,27.8966,-93.5973,2.0,202.0593456,8.653490625,-99999.0,'11133222,11111222,99999999' 
TABS,ioos:station:wmo:42047:1,2015-12-02T12:00:00Z,27.8966,-93.5973,2.0,157.7916128,15.95348865,-99999.0,'11111222,11111222,99999999' 
TABS,ioos:station:wmo:42047:1,2015-12-02T12:30:00Z,27.8966,-93.5973,2.0,169.3099759,21.56423196,-99999.0,'11111222,11111222,99999999' 
TABS,ioos:station:wmo:42047:1,2015-12-02T13:00:00Z,27.8966,-93.5973,2.0,173.3517457,11.92015101,-99999.0,'11111222,11111222,99999999' 
TABS,ioos:station:wmo:42047:1,2015-12-02T13:30:00Z,27.8966,-93.5973,2.0,176.1543337,8.49913525,-99999.0,'11133222,11111222,99999999' 
TABS,ioos:station:wmo:42047:1,2015-12-02T14:00:00Z,27.8966,-93.5973,2.0,170.3903958,18.5705708,-99999.0,'11111222,11111222,99999999' 
TABS,ioos:station:wmo:42047:1,2015-12-02T14:30:00Z,27.8966,-93.5973,2.0,182.2448705,17.10312837,-99999.0,'11111222,11111222,99999999' 
TABS,ioos:station:wmo:42047:1,2015-12-02T15:00:00Z,27.8966,-93.5973,2.0,187.5158329,20.71800425,-99999.0,'11111222,11111222,99999999' 
TABS,ioos:station:wmo:42047:1,2015-12-02T15:30:00Z,27.8966,-93.5973,2.0,187.6665759,16.26540193,-99999.0,'11111222,11111222,99999999' 
TABS,ioos:station:wmo:42047:1,2015-12-02T16:00:00Z,27.8966,-93.5973,2.0,209.1293351,19.28975376,-99999.0,'11111222,11111222,99999999' 
TABS,ioos:station:wmo:42047:1,2015-12-02T16:30:00Z,27.8966,-93.5973,2.0,197.7145018,21.8878528,-99999.0,'11111222,11111222,99999999' 
TABS,ioos:station:wmo:42047:1,2015-12-02T17:00:00Z,27.8966,-93.5973,2.0,260.5111821,14.43752056,-99999.0,'11111222,11111222,99999999' 
TABS,ioos:station:wmo:42047:1,2015-12-02T17:30:00Z,27.8966,-93.5973,2.0,249.6860846,12.44392623,-99999.0,'11111222,11111222,99999999' 
TABS,ioos:station:wmo:42047:1,2015-12-02T18:00:00Z,27.8966,-93.5973,2.0,265.0995029,16.38990238,-99999.0,'11111222,11111222,99999999' 
TABS,ioos:station:wmo:42047:1,2015-12-02T18:30:00Z,27.8966,-93.5973,2.0,248.4398339,9.68781193,-99999.0,'11133222,11111222,99999999' 
TABS,ioos:station:wmo:42047:1,2015-12-02T19:00:00Z,27.8966,-93.5973,2.0,269.9588572,14.07000355,-99999.0,'11111222,11111222,99999999' 
TABS,ioos:station:wmo:42047:1,2015-12-02T19:30:00Z,27.8966,-93.5973,2.0,225.5389215,18.03202152,-99999.0,'11111222,11111222,99999999' 
TABS,ioos:station:wmo:42047:1,2015-12-02T20:00:00Z,27.8966,-93.5973,2.0,258.7493827,13.17312795,-99999.0,'11111222,11111222,99999999' 
TABS,ioos:station:wmo:42047:1,2015-12-02T20:30:00Z,27.8966,-93.5973,2.0,247.2186228,22.70085901,-99999.0,'11111222,11111222,99999999' 
TABS,ioos:station:wmo:42047:1,2015-12-02T21:00:00Z,27.8966,-93.5973,2.0,246.1161233,12.52227615,-99999.0,'11111222,11111222,99999999' 
TABS,ioos:station:wmo:42047:1,2015-12-02T21:30:00Z,27.8966,-93.5973,2.0,259.6247443,16.10327917,-99999.0,'11111222,11111222,99999999' 
TABS,ioos:station:wmo:42047:1,2015-12-02T22:00:00Z,27.8966,-93.5973,2.0,241.665116,17.23488613,-99999.0,'11111222,11111222,99999999' 
TABS,ioos:station:wmo:42047:1,2015-12-02T22:30:00Z,27.8966,-93.5973,2.0,239.4405705,13.35492793,-99999.0,'11111222,11111222,99999999' 
TABS,ioos:station:wmo:42047:1,2015-12-02T23:00:00Z,27.8966,-93.5973,2.0,254.0378245,9.600130207,-99999.0,'11133222,11111222,99999999' 
TABS,ioos:station:wmo:42047:1,2015-12-02T23:30:00Z,27.8966,-93.5973,2.0,232.8897035,14.3201257,-99999.0,'11111222,11111222,99999999' 
TABS,ioos:station:wmo:42047:1,2015-12-03T00:00:00Z,27.8966,-93.5973,2.0,232.8507326,12.3201461,-99999.0,'11111222,11111222,99999999' 
TABS,ioos:station:wmo:42047:1,2015-12-03T00:30:00Z,27.8966,-93.5973,2.0,223.3439027,15.66188367,-99999.0,'11111222,11111222,99999999' 
TABS,ioos:station:wmo:42047:1,2015-12-03T01:00:00Z,27.8966,-93.5973,2.0,230.9171576,17.14678396,-99999.0,'11111222,11111222,99999999' 
TABS,ioos:station:wmo:42047:1,2015-12-03T01:30:00Z,27.8966,-93.5973,2.0,206.8204795,14.0292302,-99999.0,'11111222,11111222,99999999' 
TABS,ioos:station:wmo:42047:1,2015-12-03T02:00:00Z,27.8966,-93.5973,2.0,226.2964349,10.62346459,-99999.0,'11111222,11111222,99999999' 
TABS,ioos:station:wmo:42047:1,2015-12-03T02:30:00Z,27.8966,-93.5973,2.0,198.2494911,10.7612871,-99999.0,'11111222,11111222,99999999' 
TABS,ioos:station:wmo:42047:1,2015-12-03T03:00:00Z,27.8966,-93.5973,2.0,217.3895967,12.12049916,-99999.0,'11111222,11111222,99999999' 
TABS,ioos:station:wmo:42047:1,2015-12-03T03:30:00Z,27.8966,-93.5973,2.0,188.8037395,11.30317654,-99999.0,'11111222,11111222,99999999' 
TABS,ioos:station:wmo:42047:1,2015-12-03T04:00:00Z,27.8966,-93.5973,2.0,204.7387804,11.08758315,-99999.0,'11111222,11111222,99999999' 
TABS,ioos:station:wmo:42047:1,2015-12-03T04:30:00Z,27.8966,-93.5973,2.0,162.6993028,3.194526569,-99999.0,'11133222,11111222,99999999' 
TABS,ioos:station:wmo:42047:1,2015-12-03T05:00:00Z,27.8966,-93.5973,2.0,188.3523071,8.742734126,-99999.0,'11133222,11111222,99999999' 
TABS,ioos:station:wmo:42047:1,2015-12-03T05:30:00Z,27.8966,-93.5973,2.0,249.201873,13.03967024,-99999.0,'11111222,11111222,99999999' 
TABS,ioos:station:wmo:42047:1,2015-12-03T06:00:00Z,27.8966,-93.5973,2.0,252.5719484,23.20521709,-99999.0,'11111222,11111222,99999999' 
TABS,ioos:station:wmo:42047:1,2015-12-03T06:30:00Z,27.8966,-93.5973,2.0,265.4010987,20.45584757,-99999.0,'11111222,11111222,99999999' 
TABS,ioos:station:wmo:42047:1,2015-12-03T07:00:00Z,27.8966,-93.5973,2.0,235.700523,19.30743121,-99999.0,'11111222,11111222,99999999' 
TABS,ioos:station:wmo:42047:1,2015-12-03T07:30:00Z,27.8966,-93.5973,2.0,247.4039157,14.60077053,-99999.0,'11111222,11111222,99999999' 
TABS,ioos:station:wmo:42047:1,2015-12-03T08:00:00Z,27.8966,-93.5973,2.0,240.0112434,16.92593277,-99999.0,'11111222,11111222,99999999' 
TABS,ioos:station:wmo:42047:1,2015-12-03T08:30:00Z,27.8966,-93.5973,2.0,208.8843468,17.67942307,-99999.0,'11111222,11111222,99999999' 
TABS,ioos:station:wmo:42047:1,2015-12-03T09:00:00Z,27.8966,-93.5973,2.0,236.8709122,20.3834369,-99999.0,'11111222,11111222,99999999' 
TABS,ioos:station:wmo:42047:1,2015-12-03T09:30:00Z,27.8966,-93.5973,2.0,257.379262,16.29366748,-99999.0,'11111222,11111222,99999999' 
TABS,ioos:station:wmo:42047:1,2015-12-03T10:00:00Z,27.8966,-93.5973,2.0,253.7995912,21.32681176,-99999.0,'11111222,11111222,99999999' 
TABS,ioos:station:wmo:42047:1,2015-12-03T10:30:00Z,27.8966,-93.5973,2.0,258.1440167,10.70842659,-99999.0,'11111222,11111222,99999999' 
TABS,ioos:station:wmo:42047:1,2015-12-03T11:00:00Z,27.8966,-93.5973,2.0,217.4390951,8.652427405,-99999.0,'11133222,11111222,99999999' 
TABS,ioos:station:wmo:42047:1,2015-12-03T11:30:00Z,27.8966,-93.5973,2.0,249.1793672,11.92896056,-99999.0,'11111222,11111222,99999999' 
TABS,ioos:station:wmo:42047:1,2015-12-03T12:00:00Z,27.8966,-93.5973,2.0,239.0728241,10.6432044,-99999.0,'11111222,11111222,99999999' 
TABS,ioos:station:wmo:42047:1,2015-12-03T12:30:00Z,27.8966,-93.5973,2.0,257.0182987,12.90993416,-99999.0,'11111222,11111222,99999999' 
TABS,ioos:station:wmo:42047:1,2015-12-03T13:00:00Z,27.8966,-93.5973,2.0,257.6390929,15.50950999,-99999.0,'11111222,11111222,99999999' 
TABS,ioos:station:wmo:42047:1,2015-12-03T13:30:00Z,27.8966,-93.5973,2.0,274.4125044,13.12890704,-99999.0,'11111222,11111222,99999999' 
TABS,ioos:station:wmo:42047:1,2015-12-03T14:00:00Z,27.8966,-93.5973,2.0,256.8119235,14.90302318,-99999.0,'11111222,11111222,99999999' 
TABS,ioos:station:wmo:42047:1,2015-12-03T14:30:00Z,27.8966,-93.5973,2.0,255.6182181,14.0915755,-99999.0,'11111222,11111222,99999999' 
TABS,ioos:station:wmo:42047:1,2015-12-03T15:00:00Z,27.8966,-93.5973,2.0,247.93093,17.91236724,-99999.0,'11111222,11111222,99999999' 
TABS,ioos:station:wmo:42047:1,2015-12-03T15:30:00Z,27.8966,-93.5973,2.0,277.7333273,10.40461917,-99999.0,'11111222,11111222,99999999' 
TABS,ioos:station:wmo:42047:1,2015-12-03T16:00:00Z,27.8966,-93.5973,2.0,238.9428826,12.67719212,-99999.0,'11111222,11111222,99999999' 
TABS,ioos:station:wmo:42047:1,2015-12-03T16:30:00Z,27.8966,-93.5973,2.0,268.8357193,17.72365651,-99999.0,'11111222,11111222,99999999' 
TABS,ioos:station:wmo:42047:1,2015-12-03T17:00:00Z,27.8966,-93.5973,2.0,265.7104358,15.64381347,-99999.0,'11111222,11111222,99999999' 
TABS,ioos:station:wmo:42047:1,2015-12-03T17:30:00Z,27.8966,-93.5973,2.0,269.6886153,7.370108547,-99999.0,'11133222,11111222,99999999' 
TABS,ioos:station:wmo:42047:1,2015-12-03T18:00:00Z,27.8966,-93.5973,2.0,259.8460463,11.85567375,-99999.0,'11111222,11111222,99999999' 
TABS,ioos:station:wmo:42047:1,2015-12-03T18:30:00Z,27.8966,-93.5973,2.0,297.9223305,15.67475997,-99999.0,'11111222,11111222,99999999' 
TABS,ioos:station:wmo:42047:1,2015-12-03T19:00:00Z,27.8966,-93.5973,2.0,292.2590618,17.4503467,-99999.0,'11111222,11111222,99999999' 
TABS,ioos:station:wmo:42047:1,2015-12-03T19:30:00Z,27.8966,-93.5973,2.0,300.5085937,8.844461544,-99999.0,'11133222,11111222,99999999' 
TABS,ioos:station:wmo:42047:1,2015-12-03T20:00:00Z,27.8966,-93.5973,2.0,283.7357005,12.92975251,-99999.0,'11111222,11111222,99999999' 
TABS,ioos:station:wmo:42047:1,2015-12-03T20:30:00Z,27.8966,-93.5973,2.0,265.874997,15.71069063,-99999.0,'11111222,11111222,99999999' 
TABS,ioos:station:wmo:42047:1,2015-12-03T21:00:00Z,27.8966,-93.5973,2.0,253.0862873,15.12418262,-99999.0,'11111222,11111222,99999999' 
TABS,ioos:station:wmo:42047:1,2015-12-03T21:30:00Z,27.8966,-93.5973,2.0,255.1887892,15.60859379,-99999.0,'11111222,11111222,99999999' 
TABS,ioos:station:wmo:42047:1,2015-12-03T22:00:00Z,27.8966,-93.5973,2.0,269.6054998,26.17061902,-99999.0,'11111222,11111222,99999999' 
TABS,ioos:station:wmo:42047:1,2015-12-03T22:30:00Z,27.8966,-93.5973,2.0,290.6392966,20.22824263,-99999.0,'11111222,11111222,99999999' 
TABS,ioos:station:wmo:42047:1,2015-12-03T23:00:00Z,27.8966,-93.5973,2.0,286.3733079,13.62242636,-99999.0,'11111222,11111222,99999999' 
TABS,ioos:station:wmo:42047:1,2015-12-03T23:30:00Z,27.8966,-93.5973,2.0,280.5511243,20.42532741,-99999.0,'11111222,11111222,99999999' 
TABS,ioos:station:wmo:42047:1,2015-12-04T00:00:00Z,27.8966,-93.5973,2.0,296.2319533,21.51581047,-99999.0,'11111222,11111222,99999999' 
TABS,ioos:station:wmo:42047:1,2015-12-04T00:30:00Z,27.8966,-93.5973,2.0,299.9290018,26.29673934,-99999.0,'11111222,11111222,99999999' 
TABS,ioos:station:wmo:42047:1,2015-12-04T01:00:00Z,27.8966,-93.5973,2.0,302.0697945,71.09940225,-99999.0,'11111222,11111222,99999999' 
TABS,ioos:station:wmo:42047:1,2015-12-04T01:30:00Z,27.8966,-93.5973,2.0,296.032573,27.41090659,-99999.0,'11111222,11111222,99999999' 
TABS,ioos:station:wmo:42047:1,2015-12-04T02:00:00Z,27.8966,-93.5973,2.0,298.1124032,23.85412333,-99999.0,'11111222,11111222,99999999' 
TABS,ioos:station:wmo:42047:1,2015-12-04T02:30:00Z,27.8966,-93.5973,2.0,277.9735768,19.10468267,-99999.0,'11111222,11111222,99999999' 
TABS,ioos:station:wmo:42047:1,2015-12-04T03:00:00Z,27.8966,-93.5973,2.0,297.9239453,18.10829644,-99999.0,'11111222,11111222,99999999' 
TABS,ioos:station:wmo:42047:1,2015-12-04T03:30:00Z,27.8966,-93.5973,2.0,278.1691392,10.48639595,-99999.0,'11111222,11111222,99999999' 
TABS,ioos:station:wmo:42047:1,2015-12-04T04:00:00Z,27.8966,-93.5973,2.0,281.8838576,17.04530727,-99999.0,'11111222,11111222,99999999' 
TABS,ioos:station:wmo:42047:1,2015-12-04T04:30:00Z,27.8966,-93.5973,2.0,267.04926,13.01725393,-99999.0,'11111222,11111222,99999999' 
TABS,ioos:station:wmo:42047:1,2015-12-04T05:00:00Z,27.8966,-93.5973,2.0,239.520248,6.289077834,-99999.0,'11133222,11111222,99999999' 
TABS,ioos:station:wmo:42047:1,2015-12-04T05:30:00Z,27.8966,-93.5973,2.0,183.1300271,8.973388435,-99999.0,'11133222,11111222,99999999' 
TABS,ioos:station:wmo:42047:1,2015-12-04T06:00:00Z,27.8966,-93.5973,2.0,183.7886706,7.566538178,-99999.0,'11133222,11111222,99999999' 
TABS,ioos:station:wmo:42047:1,2015-12-04T06:30:00Z,27.8966,-93.5973,2.0,220.9883238,10.10810566,-99999.0,'11111222,11111222,99999999' 
TABS,ioos:station:wmo:42047:1,2015-12-04T07:00:00Z,27.8966,-93.5973,2.0,178.3240651,11.2848261,-99999.0,'11111222,11111222,99999999' 
TABS,ioos:station:wmo:42047:1,2015-12-04T07:30:00Z,27.8966,-93.5973,2.0,218.1723844,6.245614461,-99999.0,'11133222,11111222,99999999' 
TABS,ioos:station:wmo:42047:1,2015-12-04T08:00:00Z,27.8966,-93.5973,2.0,279.4696701,13.5546966,-99999.0,'11111222,11111222,99999999' 
TABS,ioos:station:wmo:42047:1,2015-12-04T08:30:00Z,27.8966,-93.5973,2.0,255.4049717,11.94544683,-99999.0,'11111222,11111222,99999999' 
TABS,ioos:station:wmo:42047:1,2015-12-04T09:00:00Z,27.8966,-93.5973,2.0,306.420423,6.114188417,-99999.0,'11133222,11111222,99999999' 
TABS,ioos:station:wmo:42047:1,2015-12-04T09:30:00Z,27.8966,-93.5973,2.0,306.460008,4.190107397,-99999.0,'11133222,11111222,99999999' 
TABS,ioos:station:wmo:42047:1,2015-12-04T10:00:00Z,27.8966,-93.5973,2.0,245.8435035,5.107220379,-99999.0,'11133222,11111222,99999999' 
TABS,ioos:station:wmo:42047:1,2015-12-04T10:30:00Z,27.8966,-93.5973,2.0,0.0,0.0,-99999.0,'11133222,11111222,99999999' 
TABS,ioos:station:wmo:42047:1,2015-12-04T11:00:00Z,27.8966,-93.5973,2.0,248.9621173,6.407058608,-99999.0,'11133222,11111222,99999999' 
TABS,ioos:station:wmo:42047:1,2015-12-04T11:30:00Z,27.8966,-93.5973,2.0,217.3903127,7.262299911,-99999.0,'11133222,11111222,99999999' 
TABS,ioos:station:wmo:42047:1,2015-12-04T12:00:00Z,27.8966,-93.5973,2.0,202.706443,11.16539744,-99999.0,'11111222,11111222,99999999' 
TABS,ioos:station:wmo:42047:1,2015-12-04T12:30:00Z,27.8966,-93.5973,2.0,263.6150814,11.42083184,-99999.0,'11111222,11111222,99999999' 
TABS,ioos:station:wmo:42047:1,2015-12-04T13:00:00Z,27.8966,-93.5973,2.0,303.3645331,16.09211297,-99999.0,'11111222,11111222,99999999' 
TABS,ioos:station:wmo:42047:1,2015-12-04T13:30:00Z,27.8966,-93.5973,2.0,306.9195594,25.55400947,-99999.0,'11111222,11111222,99999999' 
TABS,ioos:station:wmo:42047:1,2015-12-04T14:00:00Z,27.8966,-93.5973,2.0,305.6894461,20.6723898,-99999.0,'11111222,11111222,99999999' 
TABS,ioos:station:wmo:42047:1,2015-12-04T14:30:00Z,27.8966,-93.5973,2.0,304.1493182,25.27849877,-99999.0,'11111222,11111222,99999999' 
TABS,ioos:station:wmo:42047:1,2015-12-04T15:00:00Z,27.8966,-93.5973,2.0,312.1534903,20.78630799,-99999.0,'11111222,11111222,99999999' 
TABS,ioos:station:wmo:42047:1,2015-12-04T15:30:00Z,27.8966,-93.5973,2.0,301.0228327,21.75117698,-99999.0,'11111222,11111222,99999999' 
TABS,ioos:station:wmo:42047:1,2015-12-04T16:00:00Z,27.8966,-93.5973,2.0,295.4483662,24.0870297,-99999.0,'11111222,11111222,99999999' 